Location: ??????
(41.3794°N, 22.5014°E)
Time: 08:24:49
(UTC+00:00)

Cosmos 1500 - Pass Details

Date: 30 November 2020
Orbit: 498 x 518 km, 82.5° (Epoch: 17 January)

Event Time Altitude Azimuth Distance (km) Brightness Sun altitude
Rises 17:19:41 0° 345° (NNW) 2,634 6.9 -25.3°
Reaches altitude 10° 17:21:53 10° 338° (NNW) 1,746 6.0 -25.7°
Maximum altitude 17:25:31 42° 267° (W) 741 4.3 -26.4°
Drops below altitude 10° 17:29:08 10° 196° (SSW) 1,741 6.1 -27.1°
Sets 17:31:19 0° 189° (S) 2,625 7.0 -27.5°
